Back to catalog

CZ-6A DEB

AlivePO
NORAD 60765·DEBRIS·🇨🇳 China

Launched Aug 6, 2024 from Taiyuan Satellite Launch Center

Loading…

Next Passes (next 24 hours)

TLE

FreshSource: Space-Track

Epoch: Sep 14, 2026, 09:18 UTC

1 60765U 24140EQ  26257.38783844  .00001603  00000-0  36292-3 0  9997
2 60765  88.7679 238.1545 0098654 267.8043  91.1866 14.52724040110610

Track CZ-6A DEB in real time with AllMySat

Download on the App Store